Weather in Kherpuchi

Russia / Khabarovsk Krai     52°58′43″N   138°50′37″E
temp.,
°C
wind,
m/s
gust,
m/s
humid.,
%
clouds,
%
prec.,
mm/h
press.,
hPa
HPBL,
m
19 september, sun
sun1901:00+7wsw410625 0.0 1006506
04:00+4sw23725 0.0 100767
07:00+2sw23825 0.0 100861
10:00+10wnw510456 0.0 10091687
13:00+12nw583972 0.0 10092068
16:00+12wnw3547100 0.0 10091835
19:00+7nw11675 0.0 101010
22:00+5sw217345 0.0 101111
20 september, mon
mon2001:00+3sw117778 0.0 101112
04:00+2wsw228744 0.0 101121
07:00+2sw22905 0.0 101148
10:00+10wsw26575 0.0 1011869
13:00+13nw5103671 0.0 10112363
16:00+13nw49407 0.0 10122532
19:00+6ne1164100 0.0 101310
22:00+5sw116397 0.0 101311
21 september, tue
tue2101:00+4sw217237 0.0 101213
04:00+3wsw11805 0.0 101312
07:00+3wsw11834 0.0 101411
10:00+11nw13525 0.0 1015499
13:00+14nnw35407 0.0 10141621
16:00+13n34475 0.0 10151293
19:00+6nnw11786 0.0 101810
22:00+3nw11831 0.0 101910
22 september, wed
wed2201:00+2wnw00900 0.0 102010
04:00+1sw00930 0.0 102010
07:00+1nnw11920 0.0 102110
10:00+9e11610 0.0 1020379
13:00+14e22460 0.0 1019946
16:00+14ene22430 0.0 10191015
19:00+7ne11720 0.0 102110
22:00+5ssw00800 0.0 102210
23 september, thu
thu2301:00+3sw00870 0.0 102310
04:00+2wsw11900 0.0 102410
07:00+2wsw00900 0.0 102510
10:00+11ese11600 0.0 1025321
13:00+15e11450 0.0 1025904
16:00+15ene22420 0.0 10241056
19:00+8e11670 0.0 102510
22:00+6sse00730 0.0 102610